| time (UTC) | temp F | wind direction | speed knots | gust knots | rain 1hr in | rain 24hr in | rain mn in | humidity % | barometer mb |
| 20260504020925 | 66 | 335 | 9.6 | 18.2 | 0.00 | 0.00 | 0.00 | 56 | 1006.8 |
| 20260504020004 | 66 | 339 | 7.8 | 20.0 | 0.00 | 0.00 | 0.00 | 57 | 1006.6 |
| 20260504015425 | 66 | 345 | 8.7 | 19.1 | 0.00 | 0.00 | 0.00 | 59 | 1006.7 |
| 20260504014504 | 65 | 345 | 8.7 | 16.5 | 0.00 | 0.00 | 0.00 | 58 | 1006.9 |
| 20260504013604 | 65 | 344 | 8.7 | 18.2 | 0.00 | 0.00 | 0.00 | 60 | 1007.2 |
| 20260504012726 | 64 | 343 | 8.7 | 17.4 | 0.00 | 0.00 | 0.00 | 61 | 1007.2 |
| 20260504011804 | 64 | 347 | 9.6 | 19.1 | 0.00 | 0.01 | 0.00 | 62 | 1007.2 |
| 20260504010904 | 64 | 349 | 9.6 | 17.4 | 0.00 | 0.01 | 0.00 | 62 | 1007.2 |
| 20260504010004 | 63 | 349 | 9.6 | 17.4 | 0.00 | 0.01 | 0.00 | 63 | 1007.3 |
| 20260504005404 | 63 | 342 | 10.4 | 17.4 | 0.00 | 0.01 | 0.00 | 63 | 1007.2 |
| 20260504004505 | 63 | 346 | 8.7 | 19.1 | 0.00 | 0.01 | 0.00 | 64 | 1007.3 |
| 20260504003604 | 62 | 342 | 8.7 | 19.1 | 0.00 | 0.01 | 0.00 | 64 | 1007.3 |
| 20260504002704 | 62 | 341 | 8.7 | 19.1 | 0.00 | 0.01 | 0.00 | 65 | 1007.4 |
| 20260504001804 | 62 | 336 | 8.7 | 20.9 | 0.00 | 0.02 | 0.00 | 66 | 1007.5 |
| 20260504000904 | 61 | 334 | 9.6 | 20.0 | 0.00 | 0.02 | 0.00 | 66 | 1007.4 |
| 20260504000005 | 61 | 345 | 9.6 | 18.2 | 0.00 | 0.02 | 0.00 | 67 | 1007.4 |
| 20260503235404 | 61 | 339 | 7.8 | 15.6 | 0.00 | 0.02 | 0.00 | 66 | 1007.6 |
| 20260503234504 | 61 | 332 | 7.8 | 19.1 | 0.00 | 0.02 | 0.00 | 67 | 1007.6 |
| 20260503233604 | 61 | 335 | 6.1 | 14.8 | 0.00 | 0.03 | 0.00 | 68 | 1007.7 |
| 20260503232725 | 61 | 326 | 7.8 | 15.6 | 0.00 | 0.05 | 0.00 | 69 | 1007.7 |
| 20260503231805 | 60 | 346 | 6.1 | 13.9 | 0.00 | 0.05 | 0.00 | 71 | 1007.9 |
| 20260503230926 | 59 | 1 | 6.1 | 13.9 | 0.00 | 0.05 | 0.00 | 72 | 1007.8 |
| 20260503230006 | 59 | 6 | 6.1 | 12.2 | 0.00 | 0.05 | 0.00 | 73 | 1008.0 |
| 20260503225404 | 59 | 4 | 6.1 | 13.9 | 0.00 | 0.05 | 0.00 | 73 | 1007.9 |
| 20260503224525 | 58 | 359 | 7.0 | 12.2 | 0.00 | 0.05 | 0.00 | 74 | 1007.9 |
| 20260503223604 | 58 | 358 | 5.2 | 10.4 | 0.00 | 0.05 | 0.00 | 74 | 1008.0 |
| 20260503222704 | 57 | 359 | 4.3 | 10.4 | 0.00 | 0.05 | 0.00 | 76 | 1008.0 |
| 20260503221804 | 56 | 359 | 4.3 | 10.4 | 0.00 | 0.05 | 0.00 | 77 | 1008.0 |
| 20260503220925 | 55 | 359 | 4.3 | 9.6 | 0.00 | 0.05 | 0.00 | 79 | 1008.1 |
| 20260503220005 | 55 | 3 | 4.3 | 9.6 | 0.00 | 0.05 | 0.00 | 80 | 1008.1 |
| 20260503215405 | 54 | 5 | 3.5 | 7.8 | 0.00 | 0.05 | 0.00 | 81 | 1007.9 |
| 20260503214504 | 54 | 10 | 3.5 | 7.8 | 0.00 | 0.05 | 0.00 | 82 | 1008.0 |
| 20260503213604 | 53 | 3 | 2.6 | 7.0 | 0.00 | 0.05 | 0.00 | 83 | 1008.0 |
| 20260503212704 | 53 | 9 | 2.6 | 7.0 | 0.00 | 0.05 | 0.00 | 83 | 1007.9 |
| 20260503211825 | 54 | 11 | 2.6 | 6.1 | 0.00 | 0.05 | 0.00 | 83 | 1007.8 |
| 20260503210905 | 54 | 8 | 3.5 | 7.0 | 0.00 | 0.05 | 0.00 | 83 | 1007.8 |
| 20260503210005 | 54 | 7 | 4.3 | 8.7 | 0.00 | 0.05 | 0.00 | 83 | 1007.8 |
| 20260503205426 | 54 | 8 | 4.3 | 8.7 | 0.00 | 0.05 | 0.00 | 83 | 1007.5 |
| 20260503204504 | 54 | 3 | 4.3 | 9.6 | 0.00 | 0.05 | 0.00 | 83 | 1007.5 |
| 20260503203604 | 54 | 4 | 3.5 | 9.6 | 0.00 | 0.05 | 0.00 | 83 | 1007.6 |
| 20260503202704 | 54 | 7 | 4.3 | 9.6 | 0.00 | 0.05 | 0.00 | 83 | 1007.4 |
| 20260503201804 | 54 | 11 | 4.3 | 10.4 | 0.00 | 0.05 | 0.00 | 82 | 1007.5 |
| 20260503200925 | 54 | 360 | 3.5 | 7.8 | 0.00 | 0.05 | 0.00 | 82 | 1007.5 |
| 20260503200004 | 54 | 4 | 3.5 | 7.0 | 0.00 | 0.05 | 0.00 | 82 | 1007.5 |
| 20260503195404 | 54 | 8 | 2.6 | 7.8 | 0.00 | 0.05 | 0.00 | 82 | 1007.5 |
| 20260503194504 | 54 | 3 | 4.3 | 9.6 | 0.00 | 0.05 | 0.00 | 82 | 1007.5 |
| 20260503193605 | 54 | 4 | 5.2 | 10.4 | 0.00 | 0.05 | 0.00 | 82 | 1007.5 |
| 20260503192704 | 54 | 3 | 4.3 | 8.7 | 0.00 | 0.05 | 0.00 | 82 | 1007.6 |
| 20260503191804 | 54 | 9 | 2.6 | 7.0 | 0.00 | 0.05 | 0.00 | 82 | 1007.6 |
| 20260503190904 | 54 | 20 | 2.6 | 7.0 | 0.00 | 0.05 | 0.00 | 82 | 1007.8 |
| 20260503190026 | 54 | 17 | 3.5 | 7.8 | 0.00 | 0.05 | 0.00 | 82 | 1007.8 |
| 20260503185425 | 54 | 14 | 4.3 | 8.7 | 0.00 | 0.05 | 0.00 | 82 | 1007.7 |
| 20260503184525 | 54 | 13 | 5.2 | 12.2 | 0.00 | 0.05 | 0.00 | 82 | 1007.8 |
| 20260503183625 | 54 | 16 | 5.2 | 9.6 | 0.00 | 0.05 | 0.00 | 83 | 1007.7 |
| 20260503182725 | 54 | 22 | 4.3 | 7.8 | 0.00 | 0.05 | 0.00 | 83 | 1007.9 |
| 20260503181825 | 54 | 22 | 4.3 | 8.7 | 0.00 | 0.05 | 0.00 | 84 | 1007.8 |
| 20260503180904 | 54 | 21 | 5.2 | 8.7 | 0.00 | 0.05 | 0.00 | 84 | 1007.9 |
| 20260503180005 | 54 | 19 | 6.1 | 12.2 | 0.00 | 0.05 | 0.00 | 84 | 1008.0 |
| 20260503175404 | 54 | 17 | 6.1 | 12.2 | 0.00 | 0.05 | 0.00 | 84 | 1008.0 |
| 20260503174504 | 54 | 16 | 5.2 | 10.4 | 0.00 | 0.05 | 0.00 | 85 | 1008.1 |
| 20260503173604 | 54 | 16 | 4.3 | 10.4 | 0.00 | 0.05 | 0.00 | 85 | 1008.2 |
| 20260503172705 | 54 | 19 | 4.3 | 10.4 | 0.00 | 0.05 | 0.00 | 85 | 1008.3 |
| 20260503171804 | 54 | 12 | 4.3 | 7.8 | 0.00 | 0.05 | 0.00 | 85 | 1008.5 |
| 20260503170926 | 54 | 16 | 4.3 | 8.7 | 0.00 | 0.05 | 0.00 | 85 | 1008.6 |
| 20260503150904 | 55 | 13 | 2.6 | 7.8 | 0.00 | 0.05 | 0.00 | 83 | 1008.9 |
| 20260503130904 | 57 | 17 | 1.7 | 4.3 | 0.00 | 0.05 | 0.05 | 81 | 1009.3 |
| 20260503080904 | 62 | 2 | 1.7 | 4.3 | 0.00 | 0.05 | 0.05 | 67 | 1008.2 |
| 20260503072705 | 64 | 342 | 1.7 | 5.2 | 0.00 | 0.05 | 0.05 | 62 | 1008.1 |
| 20260503071825 | 64 | 328 | 1.7 | 7.0 | 0.00 | 0.05 | 0.05 | 62 | 1008.0 |
| 20260503070905 | 65 | 317 | 2.6 | 7.8 | 0.00 | 0.05 | 0.05 | 61 | 1007.8 |
| 20260503054505 | 70 | 293 | 4.3 | 13.0 | 0.00 | 0.05 | 0.05 | 49 | 1007.7 |
| 20260503053604 | 70 | 312 | 3.5 | 13.0 | 0.00 | 0.05 | 0.05 | 46 | 1007.6 |
| 20260503052705 | 70 | 305 | 3.5 | 10.4 | 0.00 | 0.05 | 0.05 | 48 | 1007.4 |
| 20260503051825 | 69 | 310 | 3.5 | 9.6 | 0.00 | 0.05 | 0.05 | 51 | 1007.5 |
| 20260503050904 | 67 | 310 | 2.6 | 7.0 | 0.00 | 0.05 | 0.05 | 62 | 1007.4 |
| 20260503050005 | 66 | 323 | 2.6 | 8.7 | 0.00 | 0.05 | 0.05 | 66 | 1007.4 |
| 20260503045405 | 66 | 321 | 1.7 | 7.0 | 0.00 | 0.05 | 0.05 | 69 | 1007.3 |
| 20260503044526 | 66 | 338 | 2.6 | 8.7 | 0.00 | 0.05 | 0.05 | 71 | 1007.4 |
| 20260503043604 | 66 | 338 | 3.5 | 8.7 | 0.00 | 0.05 | 0.05 | 71 | 1007.4 |
| 20260503042704 | 66 | 326 | 4.3 | 9.6 | 0.00 | 0.05 | 0.05 | 71 | 1007.3 |
| 20260503041804 | 66 | 319 | 3.5 | 11.3 | 0.00 | 0.05 | 0.05 | 72 | 1007.1 |
| 20260503040904 | 65 | 316 | 1.7 | 5.2 | 0.00 | 0.05 | 0.05 | 74 | 1007.2 |
| 20260503040004 | 65 | 308 | 2.6 | 7.0 | 0.00 | 0.05 | 0.05 | 74 | 1007.3 |
| 20260503035404 | 65 | 298 | 2.6 | 7.8 | 0.00 | 0.05 | 0.05 | 75 | 1007.3 |
| 20260503034505 | 65 | 293 | 2.6 | 7.8 | 0.00 | 0.05 | 0.05 | 76 | 1007.5 |
| 20260503033604 | 65 | 300 | 1.7 | 7.0 | 0.00 | 0.05 | 0.05 | 76 | 1007.5 |
| 20260503032704 | 65 | 294 | 3.5 | 8.7 | 0.00 | 0.05 | 0.05 | 75 | 1007.5 |
| 20260503031825 | 65 | 289 | 2.6 | 7.8 | 0.00 | 0.05 | 0.05 | 76 | 1007.3 |
| 20260503030925 | 65 | 288 | 1.7 | 7.0 | 0.00 | 0.05 | 0.05 | 78 | 1007.4 |
| 20260503030004 | 65 | 287 | 2.6 | 8.7 | 0.00 | 0.05 | 0.05 | 78 | 1007.5 |
| 20260503025404 | 65 | 292 | 2.6 | 7.0 | 0.00 | 0.05 | 0.05 | 78 | 1007.5 |
| 20260503024504 | 65 | 300 | 3.5 | 11.3 | 0.00 | 0.05 | 0.05 | 77 | 1007.7 |
| 20260503023605 | 66 | 310 | 5.2 | 12.2 | 0.00 | 0.05 | 0.05 | 76 | 1007.6 |
| 20260503022704 | 67 | 348 | 7.0 | 16.5 | 0.00 | 0.05 | 0.05 | 81 | 1007.5 |
| 20260503021805 | 67 | 351 | 5.2 | 10.4 | 0.01 | 0.05 | 0.05 | 83 | 1007.2 |